EW3591 Weather Reports


Display with metric or nautical units.
time (UTC)temp
F
wind
direction
speed
MPH
gust
MPH
rain 1hr
in
rain 24hr
in
rain mn
in
humidity
%
barometer
mb
20260510201057 59 81 5.0 15.0 0.00 0.24 0.00 38 1017.1
20260510200857 59 87 4.0 15.0 0.00 0.24 0.00 38 1017.2
20260510200656 60 344 4.0 15.0 0.00 0.24 0.00 38 1017.3
20260510200456 60 100 3.0 15.0 0.00 0.24 0.00 40 1017.3
20260510200256 60 131 4.0 15.0 0.00 0.24 0.00 40 1017.3
20260510200055 60 124 4.0 16.0 0.00 0.24 0.00 40 1017.2
20260510195855 59 198 4.0 16.0 0.00 0.24 0.00 40 1017.3
20260510195655 59 66 3.0 16.0 0.00 0.24 0.00 42 1017.2
20260510195455 59 69 6.0 16.0 0.00 0.24 0.00 42 1017.1
20260510195254 58 80 6.0 16.0 0.00 0.24 0.00 41 1017.2
20260510195054 58 85 5.0 12.0 0.00 0.24 0.00 40 1017.3
20260510194854 58 10 4.0 11.0 0.00 0.24 0.00 42 1017.2
20260510194653 58 118 4.0 11.0 0.00 0.24 0.00 41 1017.2
20260510194453 58 230 4.0 11.0 0.00 0.24 0.00 41 1017.2
20260510194253 58 37 4.0 11.0 0.00 0.24 0.00 41 1017.2
20260510194052 58 359 4.0 13.0 0.00 0.24 0.00 42 1017.2
20260510193852 58 38 4.0 14.0 0.00 0.24 0.00 41 1017.2
20260510193652 58 33 3.0 15.0 0.00 0.24 0.00 42 1017.1
20260510193452 57 124 3.0 15.0 0.00 0.24 0.00 43 1017.2
20260510193251 57 102 5.0 15.0 0.00 0.24 0.00 43 1017.2
20260510193051 57 223 5.0 15.0 0.00 0.24 0.00 42 1017.1
20260510192851 58 176 6.0 15.0 0.00 0.24 0.00 43 1017.1
20260510192650 57 101 6.0 15.0 0.00 0.24 0.00 42 1017.1
20260510192450 57 250 4.0 14.0 0.00 0.24 0.00 43 1017.0
20260510192250 57 196 5.0 15.0 0.00 0.24 0.00 42 1017.0
20260510192049 57 63 3.0 15.0 0.00 0.24 0.00 41 1016.9
20260510191849 57 45 2.0 15.0 0.00 0.24 0.00 42 1016.9
20260510191649 57 48 4.0 15.0 0.00 0.24 0.00 42 1017.0
20260510191449 57 128 6.0 15.0 0.00 0.24 0.00 43 1017.0
20260510191248 57 142 5.0 15.0 0.00 0.24 0.00 42 1017.0
20260510191048 57 63 2.0 11.0 0.00 0.24 0.00 45 1017.0
20260510190848 56 76 3.0 9.0 0.00 0.24 0.00 45 1016.9
20260510190647 56 31 3.0 10.0 0.00 0.24 0.00 44 1016.9
20260510190447 56 21 4.0 10.0 0.00 0.24 0.00 44 1016.9
20260510190247 56 12 3.0 10.0 0.00 0.24 0.00 44 1016.9
20260510190046 56 284 3.0 11.0 0.00 0.24 0.00 45 1016.8
20260510185846 56 54 4.0 11.0 0.00 0.24 0.00 44 1016.8
20260510185646 56 41 4.0 11.0 0.00 0.24 0.00 45 1016.8
20260510185446 56 57 4.0 11.0 0.00 0.24 0.00 44 1016.7
20260510185245 56 282 3.0 11.0 0.00 0.24 0.00 44 1016.8
20260510185045 56 107 3.0 10.0 0.00 0.24 0.00 44 1016.7
20260510184845 56 123 3.0 11.0 0.00 0.24 0.00 43 1016.8
20260510184644 56 171 3.0 11.0 0.00 0.24 0.00 43 1016.7
20260510184444 57 101 2.0 11.0 0.00 0.24 0.00 44 1016.7
20260510184244 57 75 4.0 11.0 0.00 0.24 0.00 43 1016.7
20260510184043 57 40 3.0 11.0 0.00 0.24 0.00 42 1016.7
20260510183843 57 297 3.0 11.0 0.00 0.24 0.00 42 1016.7
20260510183643 58 251 4.0 12.0 0.00 0.24 0.00 43 1016.7
20260510183443 58 220 3.0 12.0 0.00 0.24 0.00 42 1016.6
20260510183242 58 134 4.0 12.0 0.00 0.24 0.00 41 1016.6
20260510183042 59 193 3.0 12.0 0.00 0.24 0.00 41 1016.5
20260510182842 59 192 3.0 12.0 0.00 0.24 0.00 41 1016.5
20260510182641 59 64 3.0 12.0 0.00 0.24 0.00 42 1016.5
20260510182441 59 129 2.0 10.0 0.00 0.24 0.00 44 1016.5
20260510182241 58 148 3.0 10.0 0.00 0.24 0.00 46 1016.4
20260510182040 57 138 2.0 11.0 0.00 0.24 0.00 45 1016.4
20260510181840 56 96 3.0 11.0 0.00 0.24 0.00 43 1016.4
20260510181640 57 62 4.0 11.0 0.00 0.24 0.00 43 1016.4
20260510181439 57 50 4.0 11.0 0.00 0.24 0.00 42 1016.4
20260510181239 57 38 4.0 11.0 0.00 0.24 0.00 42 1016.3
20260510181039 57 24 4.0 12.0 0.00 0.24 0.00 44 1016.3
20260510180839 57 41 4.0 13.0 0.00 0.24 0.00 44 1016.4
20260510180638 56 17 4.0 13.0 0.00 0.24 0.00 45 1016.3
20260510180438 56 14 3.0 13.0 0.00 0.24 0.00 46 1016.3
20260510180238 56 75 4.0 13.0 0.00 0.24 0.00 45 1016.4
20260510180037 56 67 3.0 13.0 0.00 0.24 0.00 45 1016.4
20260510175837 56 107 3.0 12.0 0.00 0.24 0.00 45 1016.5
20260510175637 56 149 3.0 12.0 0.00 0.24 0.00 44 1016.4
20260510175436 56 283 4.0 12.0 0.00 0.24 0.00 44 1016.5
20260510175236 56 76 3.0 12.0 0.00 0.24 0.00 44 1016.4
20260510175036 56 62 5.0 12.0 0.00 0.24 0.00 43 1016.5
20260510174836 56 49 4.0 10.0 0.00 0.24 0.00 43 1016.5
20260510174635 57 34 2.0 10.0 0.00 0.24 0.00 44 1016.4
20260510174435 57 268 3.0 10.0 0.00 0.24 0.00 44 1016.3
20260510174235 57 116 3.0 10.0 0.00 0.24 0.00 45 1016.4
20260510174034 56 149 3.0 10.0 0.00 0.24 0.00 44 1016.6
20260510173834 56 154 4.0 10.0 0.00 0.24 0.00 45 1016.4
20260510173634 56 84 3.0 9.0 0.00 0.24 0.00 44 1016.5
20260510173433 56 51 2.0 9.0 0.00 0.24 0.00 46 1016.5
20260510173233 55 97 2.0 10.0 0.00 0.24 0.00 46 1016.5
20260510173033 54 74 3.0 11.0 0.00 0.24 0.00 46 1016.5
20260510172833 54 69 3.0 11.0 0.00 0.24 0.00 46 1016.5
20260510172632 54 87 4.0 11.0 0.00 0.24 0.00 45 1016.4
20260510172432 55 54 5.0 11.0 0.00 0.24 0.00 44 1016.5
20260510172232 55 351 4.0 11.0 0.00 0.24 0.00 44 1016.5
20260510172031 56 307 4.0 12.0 0.00 0.24 0.00 44 1016.5
20260510171831 56 334 3.0 13.0 0.00 0.24 0.00 46 1016.5
20260510171631 56 98 3.0 13.0 0.00 0.24 0.00 44 1016.4
20260510171430 56 143 3.0 13.0 0.00 0.24 0.00 44 1016.4
20260510171230 56 68 3.0 13.0 0.00 0.24 0.00 44 1016.4
20260510171030 56 108 4.0 13.0 0.00 0.24 0.00 44 1016.3
20260510170830 56 221 2.0 12.0 0.00 0.24 0.00 44 1016.3
20260510170629 56 238 3.0 12.0 0.00 0.24 0.00 45 1016.3
20260510170429 55 116 4.0 12.0 0.00 0.24 0.00 45 1016.3
20260510170229 55 66 5.0 12.0 0.00 0.24 0.00 44 1016.3
20260510170028 56 45 4.0 12.0 0.00 0.24 0.00 44 1016.4
20260510165828 56 97 2.0 8.0 0.00 0.24 0.00 45 1016.3
20260510165628 56 15 3.0 8.0 0.00 0.24 0.00 45 1016.3
20260510165427 57 319 2.0 8.0 0.00 0.24 0.00 44 1016.3
20260510165226 57 316 2.0 8.0 0.00 0.24 0.00 45 1016.2
20260510165026 57 50 3.0 12.0 0.00 0.24 0.00 44 1016.2
20260510164825 57 54 3.0 12.0 0.00 0.24 0.00 45 1016.2
20260510164625 57 38 3.0 12.0 0.00 0.24 0.00 44 1016.1
20260510164425 57 60 4.0 12.0 0.00 0.24 0.00 43 1016.1
20260510164224 58 94 5.0 12.0 0.00 0.24 0.00 42 1016.1
20260510164024 58 128 3.0 9.0 0.00 0.24 0.00 43 1016.1
20260510163824 58 49 3.0 9.0 0.00 0.24 0.00 44 1016.0
20260510163624 58 327 1.0 9.0 0.00 0.24 0.00 44 1016.1
20260510163423 58 141 2.0 9.0 0.00 0.24 0.00 43 1016.0
20260510163223 57 104 2.0 9.0 0.00 0.24 0.00 43 1016.1
20260510163023 57 100 3.0 10.0 0.00 0.24 0.00 42 1016.1
20260510162822 57 78 2.0 12.0 0.00 0.24 0.00 43 1016.0
20260510162622 57 360 3.0 12.0 0.00 0.24 0.00 42 1016.1
20260510162422 57 65 4.0 12.0 0.00 0.24 0.00 42 1016.1
20260510162221 57 163 4.0 12.0 0.00 0.24 0.00 42 1016.1
20260510162021 57 177 4.0 12.0 0.00 0.24 0.00 42 1016.1
20260510161821 57 92 4.0 10.0 0.00 0.24 0.00 42 1016.0
20260510161621 57 20 3.0 10.0 0.00 0.24 0.00 43 1016.1
20260510161420 56 254 3.0 12.0 0.00 0.24 0.00 44 1016.0
20260510161220 56 144 3.0 12.0 0.00 0.24 0.00 42 1016.1
20260510161020 56 114 3.0 12.0 0.00 0.24 0.00 43 1016.1
20260510160819 56 85 4.0 12.0 0.00 0.24 0.00 42 1016.2
20260510160619 56 73 3.0 12.0 0.00 0.24 0.00 44 1016.1
20260510160419 56 124 5.0 12.0 0.00 0.24 0.00 43 1016.1
20260510160218 56 134 6.0 12.0 0.00 0.24 0.00 42 1016.0
20260510160018 56 284 4.0 12.0 0.00 0.24 0.00 43 1016.1
20260510155818 56 125 3.0 12.0 0.00 0.24 0.00 44 1015.9
20260510155618 56 127 4.0 12.0 0.00 0.24 0.00 45 1015.9
20260510155417 56 224 5.0 12.0 0.00 0.24 0.00 43 1016.0
20260510155217 56 186 5.0 12.0 0.00 0.24 0.00 43 1016.0
20260510155017 56 77 3.0 11.0 0.00 0.24 0.00 44 1016.0
20260510154816 56 23 2.0 13.0 0.00 0.24 0.00 44 1015.9
20260510154616 56 139 4.0 14.0 0.00 0.24 0.00 43 1016.0
20260510154416 56 97 4.0 14.0 0.00 0.24 0.00 43 1016.0
20260510154215 56 36 2.0 14.0 0.00 0.24 0.00 44 1015.8
20260510154015 56 128 3.0 14.0 0.00 0.24 0.00 44 1016.0
20260510153815 55 80 3.0 14.0 0.00 0.24 0.00 44 1016.0
20260510153615 55 138 3.0 12.0 0.00 0.24 0.00 45 1016.0
20260510153414 55 156 5.0 12.0 0.00 0.24 0.00 46 1016.0
20260510153214 55 225 6.0 12.0 0.00 0.24 0.00 44 1016.0
20260510153014 55 231 4.0 12.0 0.00 0.24 0.00 44 1015.9
20260510152813 55 182 3.0 12.0 0.00 0.24 0.00 45 1016.0
20260510152613 55 133 3.0 12.0 0.00 0.24 0.00 44 1016.0
20260510152413 55 141 4.0 12.0 0.00 0.24 0.00 44 1015.9
20260510152212 55 200 6.0 12.0 0.00 0.24 0.00 43 1016.0
20260510152012 55 9 4.0 12.0 0.00 0.24 0.00 44 1015.9
20260510151812 55 350 3.0 10.0 0.00 0.24 0.00 46 1015.9
20260510151612 55 75 3.0 10.0 0.00 0.24 0.00 45 1015.8
20260510151411 55 72 4.0 11.0 0.00 0.24 0.00 45 1015.8
20260510151211 55 153 4.0 11.0 0.00 0.24 0.00 45 1015.8
20260510151011 55 317 2.0 11.0 0.00 0.24 0.00 45 1015.7
20260510150810 55 31 3.0 11.0 0.00 0.24 0.00 46 1015.8
20260510150610 54 306 3.0 10.0 0.00 0.24 0.00 47 1015.8
20260510150410 54 269 4.0 10.0 0.00 0.24 0.00 46 1015.8
20260510150209 55 102 2.0 10.0 0.00 0.24 0.00 46 1015.8
20260510150009 55 23 2.0 8.0 0.00 0.24 0.00 47 1015.8
20260510145809 54 11 2.0 7.0 0.00 0.24 0.00 47 1015.7
20260510145609 54 61 2.0 7.0 0.00 0.24 0.00 47 1015.7
20260510145408 54 71 2.0 7.0 0.00 0.24 0.00 47 1015.8
20260510145208 54 47 3.0 9.0 0.00 0.24 0.00 46 1015.7
20260510145008 54 158 1.0 10.0 0.00 0.24 0.00 48 1015.6
20260510144807 54 137 2.0 10.0 0.00 0.24 0.00 47 1015.6
20260510144607 54 167 3.0 10.0 0.00 0.24 0.00 47 1015.5
20260510144407 53 63 3.0 10.0 0.00 0.24 0.00 48 1015.5
20260510144206 53 127 3.0 10.0 0.00 0.24 0.00 49 1015.5
20260510144006 53 139 3.0 9.0 0.00 0.24 0.00 48 1015.5
20260510143806 53 45 3.0 9.0 0.00 0.24 0.00 50 1015.5
20260510143605 53 43 4.0 9.0 0.00 0.24 0.00 49 1015.4
20260510143405 53 39 4.0 9.0 0.00 0.24 0.00 50 1015.4
20260510143205 53 128 1.0 9.0 0.00 0.24 0.00 50 1015.3
20260510143005 53 100 2.0 9.0 0.00 0.24 0.00 52 1015.3
20260510142804 53 62 3.0 9.0 0.00 0.24 0.00 52 1015.3
20260510142604 53 154 2.0 9.0 0.00 0.24 0.00 51 1015.2
20260510142404 53 93 3.0 9.0 0.00 0.24 0.00 52 1015.2
20260510142203 52 68 2.0 9.0 0.00 0.24 0.00 52 1015.2
20260510142003 52 51 2.0 9.0 0.00 0.24 0.00 53 1015.2
20260510141803 52 25 3.0 10.0 0.00 0.24 0.00 53 1015.2
20260510141602 52 348 2.0 10.0 0.00 0.24 0.00 53 1015.1
20260510141402 52 94 2.0 10.0 0.00 0.24 0.00 55 1015.1
20260510141202 52 85 3.0 10.0 0.00 0.24 0.00 54 1015.0
20260510141002 52 66 4.0 7.0 0.00 0.24 0.00 54 1015.1
20260510140801 52 43 3.0 7.0 0.00 0.24 0.00 54 1015.1
20260510140601 52 20 2.0 10.0 0.00 0.24 0.00 55 1015.1
20260510140401 51 308 2.0 11.0 0.00 0.24 0.00 56 1015.1
20260510140200 51 255 2.0 11.0 0.00 0.24 0.00 54 1015.0
20260510140000 51 360 4.0 11.0 0.00 0.24 0.00 55 1015.0
20260510135800 51 295 3.0 12.0 0.00 0.24 0.00 55 1015.0
20260510135600 51 275 2.0 12.0 0.00 0.24 0.00 57 1014.9
20260510135359 51 297 2.0 12.0 0.00 0.24 0.00 57 1014.9
20260510135159 50 48 3.0 12.0 0.00 0.24 0.00 57 1014.9
20260510134959 51 328 4.0 12.0 0.00 0.24 0.00 56 1014.9
20260510134758 51 309 2.0 9.0 0.00 0.24 0.00 56 1014.9
20260510134558 51 342 3.0 9.0 0.00 0.24 0.00 56 1014.9
20260510134358 51 73 3.0 9.0 0.00 0.24 0.00 57 1014.9
20260510134157 51 79 3.0 9.0 0.00 0.24 0.00 57 1014.9
20260510133957 50 25 3.0 9.0 0.00 0.24 0.00 57 1014.9
20260510133757 50 40 3.0 9.0 0.00 0.24 0.00 56 1014.7
20260510133556 51 84 2.0 9.0 0.00 0.24 0.00 56 1014.7
20260510133356 50 99 3.0 9.0 0.00 0.24 0.00 58 1014.8
20260510133156 50 86 3.0 9.0 0.00 0.24 0.00 57 1014.8
20260510132956 50 52 3.0 9.0 0.00 0.24 0.00 58 1014.7
20260510132756 50 319 3.0 9.0 0.00 0.24 0.00 58 1014.7
20260510132555 50 352 3.0 9.0 0.00 0.24 0.00 59 1014.7
20260510132355 50 337 3.0 9.0 0.00 0.24 0.00 58 1014.7
20260510132154 50 51 3.0 9.0 0.00 0.24 0.00 59 1014.6
20260510131954 50 125 2.0 10.0 0.00 0.24 0.00 59 1014.6
20260510131754 50 52 2.0 10.0 0.00 0.24 0.00 61 1014.6
20260510131553 50 31 2.0 10.0 0.00 0.24 0.00 61 1014.5
20260510131353 49 28 3.0 10.0 0.00 0.24 0.00 61 1014.5
20260510131153 49 10 3.0 10.0 0.00 0.24 0.00 61 1014.5
20260510130953 49 26 3.0 8.0 0.00 0.24 0.00 62 1014.4
20260510130752 49 346 3.0 10.0 0.00 0.24 0.00 62 1014.4
20260510130552 49 346 3.0 10.0 0.00 0.24 0.00 62 1014.4
20260510130352 49 64 3.0 10.0 0.00 0.24 0.00 62 1014.4
20260510130151 49 12 3.0 10.0 0.00 0.24 0.00 63 1014.4
20260510125951 48 16 4.0 10.0 0.00 0.24 0.00 62 1014.5
20260510125751 48 67 2.0 10.0 0.00 0.24 0.00 63 1014.4
20260510125550 48 52 3.0 10.0 0.00 0.24 0.00 64 1014.4
20260510125350 48 58 5.0 10.0 0.00 0.24 0.00 63 1014.3
20260510125150 48 23 5.0 10.0 0.00 0.24 0.00 63 1014.4
20260510124950 48 76 3.0 9.0 0.00 0.24 0.00 64 1014.3
20260510124749 48 67 3.0 9.0 0.00 0.24 0.00 64 1014.4
20260510124549 48 55 4.0 12.0 0.00 0.24 0.00 64 1014.3
20260510124349 47 353 4.0 12.0 0.00 0.24 0.00 65 1014.2
20260510124148 47 289 2.0 12.0 0.00 0.24 0.00 65 1014.1
20260510123948 47 348 2.0 12.0 0.00 0.24 0.00 66 1014.2
20260510123748 47 341 3.0 12.0 0.00 0.24 0.00 65 1014.2
20260510123547 47 310 2.0 9.0 0.00 0.24 0.00 66 1014.2
20260510123347 46 30 2.0 9.0 0.00 0.24 0.00 67 1014.2
20260510123147 46 49 2.0 9.0 0.00 0.24 0.00 67 1014.2
20260510122947 46 27 4.0 9.0 0.00 0.24 0.00 68 1014.1
20260510122746 46 51 3.0 9.0 0.00 0.24 0.00 68 1014.1
20260510122546 45 29 2.0 9.0 0.00 0.24 0.00 69 1014.2
20260510122346 45 360 3.0 7.0 0.00 0.24 0.00 69 1014.2
20260510122145 45 343 3.0 7.0 0.00 0.24 0.00 69 1014.1
20260510121945 45 129 2.0 7.0 0.00 0.24 0.00 70 1014.1
20260510121745 44 58 2.0 7.0 0.00 0.24 0.00 70 1014.1
20260510121544 44 44 2.0 7.0 0.00 0.24 0.00 72 1014.0
20260510121344 44 65 2.0 7.0 0.00 0.24 0.00 72 1013.8
20260510121144 43 73 2.0 10.0 0.00 0.24 0.00 72 1013.8
20260510120944 43 55 1.0 10.0 0.00 0.24 0.00 73 1013.7
20260510120743 43 65 2.0 10.0 0.00 0.24 0.00 73 1013.7
20260510120543 43 327 2.0 10.0 0.00 0.24 0.00 72 1013.6
20260510120343 43 288 3.0 10.0 0.00 0.24 0.00 72 1013.6
20260510120142 43 91 2.0 10.0 0.00 0.24 0.00 73 1013.5
20260510115942 43 70 2.0 12.0 0.00 0.24 0.00 73 1013.5
20260510115742 43 52 3.0 12.0 0.00 0.24 0.00 73 1013.5
20260510115541 43 84 3.0 12.0 0.00 0.24 0.00 73 1013.5
20260510115341 43 91 3.0 12.0 0.00 0.24 0.00 73 1013.4
20260510115141 43 56 3.0 12.0 0.00 0.24 0.00 73 1013.4
20260510114941 43 67 3.0 10.0 0.00 0.24 0.00 73 1013.5
20260510114740 42 55 4.0 10.0 0.00 0.24 0.00 73 1013.4
20260510114540 42 75 3.0 10.0 0.00 0.24 0.00 73 1013.5
20260510114340 42 344 3.0 10.0 0.00 0.24 0.00 73 1013.6
20260510114139 42 329 3.0 10.0 0.00 0.24 0.00 73 1013.5
20260510113939 42 32 3.0 8.0 0.00 0.24 0.00 74 1013.4
20260510113739 42 322 3.0 8.0 0.00 0.24 0.00 74 1013.4
20260510113538 42 227 2.0 8.0 0.00 0.24 0.00 74 1013.4
20260510113338 42 246 2.0 8.0 0.00 0.24 0.00 74 1013.3
20260510113138 42 264 2.0 9.0 0.00 0.24 0.00 74 1013.3
20260510112938 42 280 1.0 9.0 0.00 0.24 0.00 75 1013.3
20260510112737 42 7 1.0 9.0 0.00 0.24 0.00 75 1013.3
20260510112537 42 32 1.0 9.0 0.00 0.24 0.00 76 1013.3
20260510112337 42 43 3.0 9.0 0.00 0.24 0.00 76 1013.2
20260510112136 42 56 3.0 9.0 0.00 0.24 0.00 76 1013.2
20260510111936 42 143 1.0 9.0 0.00 0.24 0.00 76 1013.2
20260510111736 41 298 2.0 11.0 0.00 0.24 0.00 76 1013.1
20260510111535 41 45 3.0 11.0 0.00 0.24 0.00 76 1013.1
20260510111335 41 21 2.0 11.0 0.00 0.24 0.00 76 1013.1
20260510111135 41 35 2.0 11.0 0.00 0.24 0.00 77 1013.1
20260510110935 41 98 2.0 11.0 0.00 0.24 0.00 77 1013.0
20260510110734 41 345 1.0 9.0 0.00 0.24 0.00 78 1013.0
20260510110534 41 171 1.0 9.0 0.00 0.24 0.00 78 1013.0
20260510110334 41 60 2.0 9.0 0.00 0.24 0.00 78 1012.9
20260510110133 41 56 2.0 9.0 0.00 0.24 0.00 78 1012.8
20260510105933 40 68 2.0 9.0 0.00 0.24 0.00 78 1012.7
20260510105733 40 48 2.0 9.0 0.00 0.24 0.00 79 1012.7
20260510105532 40 26 1.0 9.0 0.00 0.24 0.00 79 1012.7
20260510105332 40 327 1.0 9.0 0.00 0.24 0.00 79 1012.6
20260510105132 40 271 1.0 9.0 0.00 0.24 0.00 79 1012.6
20260510104932 40 233 1.0 9.0 0.00 0.24 0.00 79 1012.6
20260510104731 40 179 1.0 7.0 0.00 0.24 0.00 80 1012.5
20260510104531 40 62 1.0 7.0 0.00 0.24 0.00 80 1012.4
20260510104331 40 20 1.0 4.0 0.00 0.24 0.00 80 1012.3
20260510104130 40 35 1.0 5.0 0.00 0.24 0.00 80 1012.3
20260510103930 39 49 1.0 5.0 0.00 0.24 0.00 80 1012.3
20260510103730 39 269 0.0 5.0 0.00 0.24 0.00 80 1012.2
20260510103529 39 109 1.0 5.0 0.00 0.24 0.00 80 1012.2
20260510103329 39 352 1.0 5.0 0.00 0.24 0.00 80 1012.2
20260510103129 39 322 0.0 4.0 0.00 0.24 0.00 80 1012.2
20260510102928 39 24 1.0 4.0 0.00 0.24 0.00 80 1012.1
20260510102728 39 82 1.0 4.0 0.00 0.24 0.00 80 1012.1
20260510102528 39 132 1.0 4.0 0.00 0.24 0.00 80 1012.0
20260510102328 39 212 1.0 4.0 0.00 0.24 0.00 80 1012.0
20260510102127 39 238 1.0 4.0 0.00 0.24 0.00 80 1011.9
20260510101927 39 231 1.0 4.0 0.00 0.24 0.00 80 1011.9
20260510101727 39 164 1.0 4.0 0.00 0.24 0.00 80 1011.8
20260510101526 39 161 0.0 4.0 0.00 0.24 0.00 80 1011.8
20260510101326 39 251 0.0 2.0 0.00 0.24 0.00 80 1011.7
20260510101126 39 251 0.0 2.0 0.00 0.24 0.00 80 1011.7
20260510100925 39 251 0.0 3.0 0.00 0.24 0.00 80 1011.6
20260510100725 39 230 0.0 3.0 0.00 0.24 0.00 80 1011.6
20260510100525 39 225 1.0 3.0 0.00 0.24 0.00 80 1011.5
20260510100325 39 225 1.0 3.0 0.00 0.24 0.00 80 1011.5
20260510100124 39 225 0.0 3.0 0.00 0.24 0.00 80 1011.4
20260510095924 39 229 0.0 2.0 0.00 0.24 0.00 80 1011.4
20260510095724 39 235 0.0 2.0 0.00 0.24 0.00 80 1011.3
20260510095523 39 238 0.0 2.0 0.00 0.24 0.00 80 1011.3
20260510095323 39 238 0.0 2.0 0.00 0.24 0.00 80 1011.3
20260510095123 39 238 0.0 2.0 0.00 0.24 0.00 80 1011.2
20260510094922 39 235 0.0 2.0 0.00 0.24 0.00 80 1011.2
20260510094722 39 174 0.0 2.0 0.00 0.24 0.00 80 1011.2
20260510094522 40 129 0.0 2.0 0.00 0.24 0.00 80 1011.1
20260510094322 40 129 0.0 3.0 0.00 0.24 0.00 79 1011.1
20260510094121 40 130 0.0 4.0 0.00 0.24 0.00 79 1011.1
20260510093921 40 131 0.0 4.0 0.00 0.24 0.00 79 1011.1
20260510093721 40 131 0.0 4.0 0.00 0.24 0.00 79 1011.1
20260510093520 40 139 0.0 4.0 0.00 0.24 0.00 79 1011.0
20260510093320 40 197 0.0 4.0 0.00 0.24 0.00 79 1010.9
20260510093120 40 216 0.0 2.0 0.00 0.24 0.00 79 1010.9
20260510092919 40 216 0.0 2.0 0.00 0.24 0.00 79 1010.9
20260510092719 40 216 0.0 2.0 0.00 0.24 0.00 79 1010.9
20260510092519 40 216 0.0 2.0 0.00 0.24 0.00 79 1010.8
20260510092319 40 216 0.0 2.0 0.00 0.24 0.00 78 1010.7
20260510092118 40 216 0.0 2.0 0.00 0.24 0.00 78 1010.8
20260510091918 40 0 0.0 2.0 0.00 0.24 0.00 78 1010.7
20260510091718 40 216 0.0 2.0 0.00 0.24 0.00 78 1010.7
20260510091517 40 216 0.0 3.0 0.00 0.24 0.00 78 1010.6
20260510091317 40 216 0.0 3.0 0.00 0.24 0.00 77 1010.6
20260510091117 40 216 0.0 3.0 0.00 0.24 0.00 77 1010.6
20260510090916 41 202 0.0 3.0 0.00 0.24 0.00 77 1010.6
20260510090716 41 258 1.0 3.0 0.00 0.24 0.00 77 1010.5
20260510090516 41 242 0.0 2.0 0.00 0.24 0.00 77 1010.4
20260510090316 41 28 0.0 2.0 0.00 0.24 0.00 76 1010.5
20260510090115 41 28 0.0 2.0 0.00 0.24 0.00 76 1010.5
20260510085915 41 28 0.0 2.0 0.00 0.24 0.00 76 1010.4
20260510085715 41 28 0.0 2.0 0.00 0.24 0.00 76 1010.4
20260510085514 41 28 0.0 2.0 0.00 0.24 0.00 76 1010.4
20260510085314 41 28 0.0 4.0 0.00 0.24 0.00 76 1010.4
20260510085114 41 28 0.0 5.0 0.00 0.24 0.00 75 1010.4
20260510084913 41 28 0.0 5.0 0.00 0.24 0.00 75 1010.4
20260510084713 41 28 0.0 5.0 0.00 0.24 0.00 75 1010.4
20260510084513 42 33 1.0 5.0 0.00 0.24 0.00 75 1010.3
20260510084312 42 59 0.0 3.0 0.00 0.24 0.00 75 1010.4
20260510084112 42 9 0.0 4.0 0.00 0.24 0.00 74 1010.3
20260510083912 42 91 1.0 4.0 0.00 0.24 0.00 74 1010.3
20260510083712 42 89 0.0 4.0 0.00 0.24 0.00 75 1010.3
20260510083511 42 71 1.0 4.0 0.00 0.24 0.00 74 1010.4
20260510083311 42 131 0.0 3.0 0.00 0.24 0.00 74 1010.3
20260510083111 42 129 0.0 2.0 0.00 0.24 0.00 74 1010.3
20260510082910 42 129 0.0 3.0 0.00 0.24 0.00 74 1010.3
20260510082710 42 129 0.0 3.0 0.00 0.24 0.00 73 1010.2
20260510082510 42 114 0.0 5.0 0.00 0.24 0.00 73 1010.3
20260510082310 42 33 1.0 5.0 0.00 0.24 0.00 73 1010.2
20260510082109 42 354 1.0 5.0 0.00 0.24 0.00 73 1010.2
20260510081909 42 344 1.0 5.0 0.00 0.24 0.00 72 1010.2
20260510081709 42 325 1.0 5.0 0.00 0.24 0.00 72 1010.2
20260510081508 43 311 1.0 4.0 0.00 0.24 0.00 72 1010.1
20260510081308 43 306 1.0 4.0 0.00 0.24 0.00 72 1010.1
20260510081108 43 334 1.0 4.0 0.00 0.24 0.00 72 1010.1
20260510080907 43 4 1.0 5.0 0.00 0.24 0.00 72 1010.1
20260510080707 43 2 1.0 5.0 0.00 0.24 0.00 72 1010.1
20260510080507 43 348 1.0 7.0 0.00 0.24 0.00 72 1010.0
20260510080306 43 353 2.0 7.0 0.00 0.24 0.00 71 1010.0
20260510080106 43 337 2.0 7.0 0.00 0.24 0.00 71 1009.8
20260510075906 43 302 2.0 15.0 0.00 0.24 0.00 71 1009.9
20260510075706 43 48 2.0 16.0 0.00 0.24 0.00 71 1009.9
20260510075505 44 34 2.0 16.0 0.00 0.24 0.00 70 1009.8
20260510075306 44 337 3.0 16.0 0.00 0.24 0.00 70 1009.9
20260510075105 44 29 4.0 16.0 0.00 0.24 0.00 70 1009.9
20260510074904 44 354 2.0 9.0 0.00 0.24 0.00 70 1009.9
20260510074704 44 354 2.0 7.0 0.00 0.24 0.00 71 1009.8
20260510074504 44 334 2.0 7.0 0.00 0.24 0.00 72 1009.8
20260510074304 44 276 1.0 7.0 0.00 0.24 0.00 72 1009.8
20260510074103 44 325 2.0 7.0 0.00 0.24 0.00 72 1009.8
20260510073903 44 199 2.0 7.0 0.00 0.24 0.00 72 1009.6
20260510073703 44 342 1.0 5.0 0.00 0.24 0.00 72 1009.7
20260510073502 44 339 1.0 4.0 0.00 0.24 0.00 72 1009.7
20260510073302 44 357 2.0 4.0 0.00 0.24 0.00 73 1009.6
20260510073102 44 354 1.0 6.0 0.00 0.24 0.00 73 1009.6
20260510072901 44 12 1.0 6.0 0.00 0.24 0.00 73 1009.6
20260510072701 44 357 1.0 7.0 0.00 0.24 0.00 74 1009.6
20260510072501 44 358 1.0 13.0 0.00 0.24 0.00 73 1009.6
20260510072300 44 29 2.0 14.0 0.00 0.24 0.00 73 1009.6
20260510072100 44 339 2.0 14.0 0.00 0.24 0.00 73 1009.5
20260510071900 44 321 2.0 14.0 0.00 0.24 0.00 72 1009.5
20260510071700 45 315 3.0 14.0 0.00 0.24 0.00 72 1009.5
20260510071459 45 347 2.0 14.0 0.00 0.24 0.00 72 1009.4
20260510071259 45 354 2.0 6.0 0.00 0.24 0.00 72 1009.5
20260510071059 45 331 1.0 6.0 0.00 0.24 0.00 72 1009.4
20260510070858 45 291 1.0 6.0 0.00 0.24 0.00 73 1009.5
20260510070658 45 280 1.0 6.0 0.00 0.24 0.00 73 1009.4
20260510070458 45 360 1.0 6.0 0.00 0.24 0.00 73 1009.4
20260510070257 45 62 1.0 6.0 0.00 0.24 0.00 73 1009.4
20260510070057 45 61 1.0 4.0 0.00 0.24 0.00 73 1009.4
20260510065857 45 360 1.0 4.0 0.00 0.24 0.00 73 1009.4
20260510065657 46 333 0.0 4.0 0.00 0.24 0.00 73 1009.4
20260510065456 46 339 1.0 6.0 0.00 0.24 0.00 73 1009.3
20260510065256 46 298 1.0 6.0 0.00 0.24 0.00 72 1009.2
20260510065056 46 294 1.0 6.0 0.00 0.24 0.00 72 1009.1
20260510064855 46 279 2.0 6.0 0.00 0.24 0.00 72 1009.3
20260510064655 46 8 2.0 6.0 0.00 0.24 0.00 72 1009.2
20260510064455 46 342 2.0 6.0 0.00 0.24 0.00 72 1009.3
20260510064254 46 340 2.0 6.0 0.00 0.24 0.00 73 1009.2
20260510064054 46 39 2.0 6.0 0.00 0.24 0.00 73 1009.2
20260510063854 46 38 2.0 6.0 0.00 0.24 0.00 73 1009.2
20260510063654 46 32 2.0 6.0 0.00 0.24 0.00 73 1009.3
20260510063453 46 31 1.0 6.0 0.00 0.24 0.00 74 1009.3
20260510063253 46 318 1.0 3.0 0.00 0.24 0.00 74 1009.3
20260510063053 46 27 1.0 3.0 0.00 0.24 0.00 74 1009.3
20260510062852 46 22 1.0 3.0 0.00 0.24 0.00 74 1009.2
20260510062652 46 43 1.0 3.0 0.00 0.24 0.00 74 1009.2
20260510062452 47 360 1.0 3.0 0.00 0.24 0.00 74 1009.2
20260510062251 47 287 1.0 5.0 0.00 0.24 0.00 74 1009.2
20260510062051 47 351 1.0 5.0 0.00 0.24 0.00 75 1009.1
20260510061851 47 42 1.0 6.0 0.00 0.24 0.00 75 1009.1
20260510061651 47 54 2.0 6.0 0.00 0.24 0.00 75 1009.1
20260510061450 47 59 2.0 6.0 0.00 0.24 0.00 75 1009.1
20260510061250 47 64 1.0 6.0 0.00 0.24 0.00 76 1009.0
20260510061050 47 28 1.0 6.0 0.00 0.24 0.00 78 1009.0
20260510060849 47 29 0.0 2.0 0.00 0.24 0.00 78 1008.9
20260510060649 47 29 0.0 2.0 0.00 0.24 0.00 78 1009.0
20260510060449 47 29 0.0 2.0 0.00 0.24 0.00 78 1008.9
20260510060248 47 29 0.0 2.0 0.00 0.24 0.00 78 1008.9
20260510060048 47 29 0.0 2.0 0.00 0.24 0.00 77 1008.9
20260510055848 47 29 0.0 2.0 0.00 0.24 0.00 77 1008.8
20260510055648 47 29 0.0 2.0 0.00 0.24 0.00 77 1008.9
20260510055447 47 29 0.0 2.0 0.00 0.24 0.00 77 1008.9
20260510055247 47 29 0.0 2.0 0.00 0.24 0.00 77 1008.8
20260510055047 47 0 0.0 2.0 0.00 0.24 0.00 76 1008.8
20260510054846 47 29 0.0 2.0 0.00 0.24 0.00 76 1008.7
20260510054646 47 28 0.0 2.0 0.00 0.24 0.00 76 1008.5
20260510054446 48 0 0.0 2.0 0.00 0.24 0.00 76 1008.6
20260510054245 48 29 0.0 2.0 0.00 0.24 0.00 76 1008.6
20260510054045 48 29 0.0 2.0 0.00 0.24 0.00 76 1008.6
20260510053845 47 0 0.0 0.0 0.00 0.24 0.00 77 1008.6
20260510053645 48 0 0.0 0.0 0.00 0.24 0.00 76 1008.5
20260510053444 48 0 0.0 0.0 0.00 0.24 0.00 77 1008.6
20260510053244 48 0 0.0 0.0 0.00 0.24 0.00 77 1008.5
20260510053044 48 0 0.0 0.0 0.00 0.24 0.00 76 1008.5
20260510052843 48 0 0.0 0.0 0.00 0.24 0.00 76 1008.4
20260510052643 48 0 0.0 0.0 0.00 0.24 0.00 76 1008.4
20260510052443 48 0 0.0 1.0 0.00 0.24 0.00 76 1008.3
20260510052242 48 0 0.0 1.0 0.00 0.24 0.00 76 1008.3
20260510052042 48 0 0.0 1.0 0.00 0.24 0.00 76 1008.4
20260510051842 48 29 0.0 2.0 0.00 0.24 0.00 76 1008.4
20260510051642 48 0 0.0 2.0 0.00 0.24 0.00 76 1008.4
20260510051441 48 29 0.0 2.0 0.00 0.24 0.00 75 1008.4
20260510051241 48 29 0.0 2.0 0.00 0.24 0.00 76 1008.4
20260510051041 48 0 0.0 2.0 0.00 0.24 0.00 75 1008.5
20260510050840 48 0 0.0 2.0 0.00 0.24 0.00 76 1008.3
20260510050640 48 29 0.0 2.0 0.00 0.24 0.00 76 1008.2
20260510050440 48 29 0.0 2.0 0.00 0.24 0.00 76 1008.4
20260510050239 48 0 0.0 2.0 0.00 0.24 0.00 76 1008.4
20260510050039 48 29 0.0 4.0 0.00 0.24 0.00 76 1008.4
20260510045839 48 29 0.0 5.0 0.00 0.24 0.00 76 1008.3
20260510045639 48 29 0.0 5.0 0.00 0.24 0.00 76 1008.3
20260510045438 48 48 0.0 5.0 0.00 0.24 0.00 76 1008.3
20260510045238 48 47 1.0 5.0 0.00 0.24 0.00 76 1008.2
20260510045038 48 347 1.0 5.0 0.00 0.24 0.00 77 1008.2
20260510044837 48 344 1.0 6.0 0.00 0.24 0.00 77 1008.1
20260510044637 48 111 1.0 6.0 0.00 0.24 0.00 77 1008.0
20260510044437 48 68 0.0 6.0 0.00 0.24 0.00 77 1007.9
20260510044236 49 41 1.0 6.0 0.00 0.24 0.00 77 1007.9
20260510044036 49 340 1.0 6.0 0.00 0.24 0.00 77 1007.9
20260510043836 49 314 0.0 4.0 0.00 0.24 0.00 77 1007.9
20260510043635 49 29 1.0 4.0 0.00 0.24 0.00 77 1008.0
20260510043435 49 360 1.0 4.0 0.00 0.24 0.00 77 1008.0
20260510043235 49 337 1.0 6.0 0.00 0.24 0.00 77 1008.0
20260510043035 49 329 1.0 6.0 0.00 0.24 0.00 78 1007.9
20260510042834 49 29 1.0 6.0 0.00 0.24 0.00 78 1007.9
20260510042634 50 355 1.0 7.0 0.00 0.24 0.00 77 1007.8
20260510042434 50 337 2.0 7.0 0.00 0.24 0.00 78 1007.7
20260510042233 50 335 2.0 7.0 0.00 0.24 0.00 78 1007.8
20260510042033 49 2 2.0 7.0 0.00 0.24 0.00 78 1007.9
20260510041833 49 3 2.0 7.0 0.00 0.24 0.00 78 1007.9
20260510041632 49 2 2.0 7.0 0.00 0.24 0.00 79 1007.9
20260510041432 50 53 1.0 6.0 0.00 0.24 0.00 79 1007.9
20260510041232 50 350 1.0 7.0 0.00 0.24 0.00 80 1007.7
20260510041032 50 348 1.0 7.0 0.00 0.24 0.00 79 1007.4
20260510040831 50 348 2.0 7.0 0.00 0.24 0.00 79 1007.3
20260510040631 50 354 3.0 10.0 0.00 0.24 0.00 79 1007.5
20260510040431 50 330 2.0 11.0 0.00 0.24 0.00 79 1007.4
20260510040230 50 318 2.0 11.0 0.00 0.24 0.00 78 1007.3
20260510040030 50 334 3.0 11.0 0.00 0.24 0.00 79 1007.2
20260510035830 50 357 3.0 11.0 0.00 0.24 0.24 79 1007.1
20260510035630 50 354 2.0 9.0 0.00 0.24 0.24 80 1007.1
20260510035429 50 29 2.0 9.0 0.00 0.24 0.24 80 1007.1
20260510035229 51 329 2.0 9.0 0.00 0.24 0.24 81 1007.1
20260510035029 51 23 3.0 9.0 0.00 0.24 0.24 81 1007.1
20260510034828 51 343 3.0 9.0 0.00 0.24 0.24 82 1007.0
20260510034628 51 6 3.0 7.0 0.00 0.24 0.24 83 1007.1
20260510034428 50 322 2.0 7.0 0.00 0.24 0.24 83 1007.2
20260510034228 50 321 2.0 6.0 0.00 0.24 0.24 84 1007.1
20260510034027 50 343 1.0 4.0 0.00 0.24 0.24 85 1006.9
20260510033827 50 337 0.0 4.0 0.00 0.24 0.24 85 1006.8
20260510033626 50 329 1.0 4.0 0.00 0.24 0.24 86 1006.7
20260510033426 51 280 1.0 4.0 0.00 0.24 0.24 86 1006.5
20260510033226 51 141 1.0 3.0 0.00 0.24 0.24 86 1006.6
20260510033026 51 100 1.0 2.0 0.00 0.24 0.24 87 1006.5
20260510032825 51 52 1.0 2.0 0.00 0.24 0.24 87 1006.5
20260510032625 51 257 0.0 2.0 0.00 0.24 0.24 88 1006.5
20260510032425 51 256 0.0 3.0 0.00 0.24 0.24 89 1006.5
20260510032224 51 256 0.0 3.0 0.00 0.24 0.24 89 1006.5
20260510032024 51 278 0.0 3.0 0.00 0.24 0.24 89 1006.5
20260510031824 51 309 1.0 3.0 0.00 0.24 0.24 90 1006.4
20260510031623 51 320 0.0 3.0 0.00 0.24 0.24 90 1006.4
20260510031423 51 95 0.0 3.0 0.00 0.24 0.24 92 1006.4
20260510031223 51 87 1.0 3.0 0.00 0.24 0.24 92 1006.4
20260510031023 52 338 1.0 4.0 0.00 0.24 0.24 93 1006.4
20260510030822 52 342 1.0 4.0 0.00 0.24 0.24 94 1006.4
20260510030622 52 354 1.0 4.0 0.00 0.24 0.24 94 1006.4
20260510030422 52 254 1.0 4.0 0.00 0.24 0.24 95 1006.4
20260510030221 52 232 1.0 4.0 0.00 0.24 0.24 95 1006.4
20260510030021 52 232 1.0 2.0 0.00 0.24 0.24 95 1006.5
20260510025821 52 232 0.0 3.0 0.00 0.24 0.24 95 1006.4
20260510025621 52 232 0.0 3.0 0.00 0.24 0.24 95 1006.4
20260510025420 51 232 0.0 3.0 0.00 0.24 0.24 95 1006.4
20260510025220 51 232 0.0 3.0 0.00 0.24 0.24 95 1006.3
20260510025020 51 232 0.0 3.0 0.00 0.24 0.24 95 1006.2
20260510024819 51 0 0.0 2.0 0.00 0.24 0.24 95 1006.2
20260510024619 51 0 0.0 2.0 0.00 0.24 0.24 95 1006.1
20260510024419 51 0 0.0 2.0 0.00 0.24 0.24 95 1006.1
20260510024218 51 232 0.0 2.0 0.00 0.24 0.24 95 1006.1
20260510024018 51 232 0.0 2.0 0.00 0.24 0.24 95 1006.1
20260510023753 51 232 0.0 1.0 0.00 0.24 0.24 95 1006.0
20260510023552 51 0 0.0 1.0 0.00 0.24 0.24 95 1006.1
20260510023352 51 232 0.0 2.0 0.00 0.24 0.24 95 1006.0
20260510023152 51 232 0.0 2.0 0.00 0.24 0.24 95 1006.0
20260510022952 51 0 0.0 2.0 0.00 0.24 0.24 95 1006.0
20260510022751 51 232 0.0 2.0 0.00 0.24 0.24 95 1006.0
20260510022551 51 232 0.0 2.0 0.00 0.24 0.24 95 1006.1
20260510022351 51 232 0.0 2.0 0.00 0.24 0.24 95 1006.1
20260510022150 52 232 0.0 2.0 0.00 0.24 0.24 95 1006.1
20260510021950 52 232 0.0 2.0 0.00 0.24 0.24 95 1006.1
20260510021750 52 232 0.0 2.0 0.00 0.24 0.24 95 1006.0
20260510021549 52 232 0.0 3.0 0.00 0.24 0.24 95 1005.9
20260510021349 52 232 1.0 4.0 0.00 0.24 0.24 95 1005.9
20260510021149 52 232 0.0 4.0 0.00 0.24 0.24 95 1005.9
20260510020948 52 232 0.0 4.0 0.00 0.24 0.24 95 1005.9
20260510020748 52 241 1.0 4.0 0.00 0.24 0.24 95 1005.8
20260510020548 52 267 1.0 4.0 0.00 0.24 0.24 94 1005.8
20260510020348 52 268 1.0 4.0 0.00 0.24 0.24 95 1005.7
20260510020147 52 246 1.0 4.0 0.00 0.24 0.24 94 1005.7
20260510015947 52 236 0.0 3.0 0.00 0.24 0.24 94 1005.7
20260510015747 52 235 0.0 3.0 0.00 0.24 0.24 94 1005.7
20260510015546 52 234 1.0 3.0 0.00 0.24 0.24 94 1005.7
20260510015346 52 224 1.0 3.0 0.00 0.24 0.24 94 1005.7
20260510015146 52 219 1.0 4.0 0.00 0.24 0.24 94 1005.7
20260510014946 52 219 1.0 4.0 0.00 0.24 0.24 94 1005.7
20260510014745 52 219 0.0 4.0 0.00 0.24 0.24 94 1005.6
20260510014545 52 219 1.0 4.0 0.00 0.24 0.24 94 1005.5
20260510014345 52 252 1.0 4.0 0.00 0.24 0.24 94 1005.5
20260510014144 52 277 0.0 3.0 0.00 0.24 0.24 94 1005.4
20260510013944 52 282 0.0 3.0 0.00 0.24 0.24 94 1005.4
20260510013744 52 260 1.0 3.0 0.00 0.24 0.24 94 1005.4
20260510013543 52 156 0.0 3.0 0.00 0.24 0.24 94 1005.3
20260510013343 52 217 0.0 4.0 0.00 0.24 0.24 93 1005.2
20260510013143 52 217 1.0 4.0 0.00 0.24 0.24 93 1005.1
20260510012942 52 217 1.0 4.0 0.00 0.24 0.24 93 1005.1
20260510012742 52 217 1.0 4.0 0.00 0.24 0.24 93 1005.0
20260510012542 52 217 0.0 4.0 0.00 0.24 0.24 93 1005.0
20260510012342 52 217 0.0 2.0 0.00 0.24 0.24 93 1005.0
20260510012141 53 217 0.0 2.0 0.00 0.24 0.24 93 1005.0
20260510011941 53 217 0.0 4.0 0.00 0.24 0.24 92 1005.0
20260510011741 53 217 0.0 6.0 0.00 0.24 0.24 92 1004.9
20260510011540 53 217 0.0 6.0 0.00 0.24 0.24 92 1004.8
20260510011340 53 217 1.0 6.0 0.00 0.24 0.24 92 1004.8
20260510011140 53 207 1.0 6.0 0.00 0.24 0.24 92 1004.7
20260510010939 53 211 1.0 6.0 0.00 0.24 0.24 92 1004.6
20260510010739 53 203 2.0 6.0 0.00 0.24 0.24 92 1004.6
20260510010539 53 201 2.0 4.0 0.00 0.24 0.24 92 1004.6
20260510010339 53 201 1.0 4.0 0.00 0.24 0.24 92 1004.6
20260510010138 53 200 1.0 5.0 0.00 0.24 0.24 91 1004.5
20260510005938 53 200 1.0 5.0 0.00 0.24 0.24 91 1004.5
20260510005738 53 200 1.0 5.0 0.00 0.24 0.24 91 1004.4
20260510005537 53 207 1.0 5.0 0.00 0.24 0.24 91 1004.4
20260510005337 54 214 1.0 5.0 0.00 0.24 0.24 91 1004.4
20260510005137 54 211 2.0 5.0 0.00 0.24 0.24 91 1004.3
20260510004936 54 233 2.0 5.0 0.00 0.24 0.24 91 1004.3
20260510004736 54 236 1.0 6.0 0.00 0.24 0.24 91 1004.3
20260510004536 54 236 1.0 7.0 0.00 0.24 0.24 91 1004.1
20260510004336 54 246 1.0 7.0 0.00 0.24 0.24 91 1004.1
20260510004135 54 210 2.0 7.0 0.00 0.24 0.24 91 1004.0
20260510003935 54 187 3.0 7.0 0.00 0.24 0.24 91 1004.0
20260510003735 54 226 3.0 7.0 0.00 0.24 0.24 91 1004.0
20260510003534 54 229 2.0 6.0 0.00 0.24 0.24 90 1004.0
20260510003334 54 198 3.0 6.0 0.00 0.24 0.24 90 1004.0
20260510003134 54 222 2.0 6.0 0.00 0.24 0.24 90 1004.0
20260510002933 54 207 2.0 6.0 0.00 0.24 0.24 90 1004.0
20260510002733 54 197 2.0 6.0 0.00 0.24 0.24 90 1004.1
20260510002533 54 193 2.0 6.0 0.00 0.24 0.24 90 1004.0
20260510002333 54 206 1.0 6.0 0.00 0.24 0.24 90 1004.0
20260510002132 54 213 2.0 6.0 0.00 0.24 0.24 90 1004.0
20260510001932 54 217 2.0 6.0 0.00 0.24 0.24 90 1004.0
20260510001732 54 168 1.0 6.0 0.00 0.24 0.24 90 1003.9
20260510001531 54 178 1.0 6.0 0.00 0.24 0.24 90 1004.0
20260510001331 54 245 2.0 6.0 0.00 0.24 0.24 90 1004.0
20260510001131 54 212 2.0 6.0 0.00 0.24 0.24 89 1003.9
20260510000930 54 241 2.0 6.0 0.00 0.24 0.24 89 1003.9
20260510000730 54 279 1.0 6.0 0.00 0.24 0.24 90 1003.8
20260510000530 54 271 1.0 6.0 0.00 0.24 0.24 90 1003.9
20260510000330 54 139 1.0 6.0 0.00 0.24 0.24 90 1003.9
20260510000129 54 192 1.0 6.0 0.00 0.24 0.24 90 1003.8
20260509235929 54 185 1.0 5.0 0.00 0.24 0.24 89 1003.7
20260509235729 54 233 1.0 5.0 0.00 0.24 0.24 89 1003.7
20260509235528 54 203 1.0 6.0 0.00 0.24 0.24 89 1003.6
20260509235328 54 173 1.0 7.0 0.00 0.24 0.24 89 1003.6
20260509235128 54 286 1.0 7.0 0.00 0.24 0.24 89 1003.6
20260509234927 54 246 1.0 7.0 0.00 0.24 0.24 89 1003.5
20260509234727 54 211 3.0 9.0 0.00 0.24 0.24 89 1003.5
20260509234527 54 235 3.0 9.0 0.00 0.24 0.24 89 1003.5
20260509234327 54 255 2.0 9.0 0.00 0.24 0.24 89 1003.4
20260509234126 54 220 4.0 9.0 0.00 0.24 0.24 89 1003.5
20260509233926 54 208 5.0 9.0 0.01 0.24 0.24 89 1003.5
20260509233726 54 199 3.0 10.0 0.01 0.24 0.24 89 1003.6
20260509233525 54 140 2.0 10.0 0.01 0.24 0.24 88 1003.6
20260509233325 54 153 3.0 10.0 0.01 0.24 0.24 88 1003.4
20260509233125 54 193 4.0 10.0 0.01 0.24 0.24 88 1003.2
20260509232924 54 206 4.0 10.0 0.01 0.24 0.24 88 1003.2
20260509232724 54 216 4.0 8.0 0.01 0.24 0.24 88 1003.2
20260509232524 54 237 4.0 12.0 0.01 0.24 0.24 88 1003.2
20260509232324 55 213 4.0 12.0 0.01 0.24 0.24 88 1003.1
20260509232123 54 210 4.0 12.0 0.01 0.24 0.24 88 1003.0
20260509231923 55 230 4.0 13.0 0.01 0.24 0.24 87 1003.2
20260509231723 55 227 5.0 14.0 0.01 0.24 0.24 87 1003.1
20260509231522 54 206 5.0 14.0 0.01 0.24 0.24 87 1003.0
20260509231322 54 201 7.0 14.0 0.01 0.24 0.24 87 1003.0
20260509231122 54 211 6.0 14.0 0.01 0.24 0.24 87 1003.0
20260509230921 54 215 5.0 13.0 0.01 0.24 0.24 87 1003.1
20260509230721 54 225 5.0 13.0 0.01 0.24 0.24 88 1003.0
20260509230521 54 218 7.0 15.0 0.01 0.24 0.24 87 1003.0
20260509230321 54 218 6.0 15.0 0.01 0.24 0.24 87 1003.0
20260509230120 54 220 5.0 15.0 0.01 0.24 0.24 87 1003.0
20260509225920 54 216 7.0 15.0 0.01 0.24 0.24 87 1003.0
20260509225720 54 216 7.0 15.0 0.02 0.24 0.24 87 1003.0
20260509225519 54 215 7.0 15.0 0.03 0.24 0.24 87 1003.1
20260509225319 54 223 7.0 18.0 0.04 0.24 0.24 87 1003.0
20260509223918 54 215 5.0 15.0 0.19 0.23 0.23 90 1002.8
20260509223718 54 215 7.0 15.0 0.21 0.23 0.23 90 1002.9
20260509223517 53 216 6.0 15.0 0.21 0.23 0.23 91 1002.9
20260509223317 53 222 5.0 15.0 0.22 0.23 0.23 92 1002.9
20260509223048 53 211 6.0 15.0 0.22 0.23 0.23 93 1003.0
20260509222848 52 210 6.0 15.0 0.23 0.23 0.23 93 1003.0
20260509222648 52 210 6.0 15.0 0.23 0.23 0.23 92 1003.1
20260509222347 51 213 7.0 15.0 0.23 0.23 0.23 92 1003.3
20260509222147 51 220 6.0 15.0 0.23 0.23 0.23 92 1003.3
20260509221947 51 220 6.0 19.0 0.23 0.23 0.23 92 1003.2
20260509221746 52 215 7.0 19.0 0.23 0.23 0.23 92 1003.1
20260509221546 52 214 9.0 19.0 0.23 0.23 0.23 92 1003.4
20260509221346 52 211 9.0 19.0 0.23 0.23 0.23 92 1003.6
20260509221145 52 213 9.0 19.0 0.23 0.23 0.23 91 1003.6
20260509220945 52 224 8.0 19.0 0.23 0.23 0.23 91 1003.6
20260509220745 52 224 6.0 18.0 0.23 0.23 0.23 91 1003.4
20260509220545 52 218 7.0 19.0 0.23 0.23 0.23 92 1003.4
20260509220345 52 217 6.0 19.0 0.23 0.23 0.23 92 1003.0
20260509220144 52 227 5.0 21.0 0.23 0.23 0.23 92 1003.6
20260509215944 52 227 5.0 21.0 0.23 0.23 0.23 91 1003.7
20260509215743 53 211 6.0 21.0 0.22 0.22 0.22 91 1003.9
20260509215543 53 194 7.0 21.0 0.21 0.21 0.21 91 1004.0
20260509215343 53 184 7.0 21.0 0.19 0.19 0.19 91 1004.2
20260509215142 53 152 4.0 24.0 0.19 0.19 0.19 90 1004.2
20260509214942 53 193 6.0 25.0 0.17 0.17 0.17 86 1004.3
20260509214742 54 231 6.0 25.0 0.16 0.16 0.16 84 1004.1
20260509214542 55 239 8.0 25.0 0.15 0.15 0.15 82 1004.2
20260509214341 57 190 10.0 25.0 0.12 0.12 0.12 82 1004.3
20260509214141 58 197 10.0 22.0 0.06 0.06 0.06 82 1004.1
20260509213941 59 208 11.0 22.0 0.04 0.04 0.04 80 1004.0
20260509213740 59 256 8.0 22.0 0.02 0.02 0.02 78 1003.4
20260509213540 60 250 5.0 18.0 0.02 0.02 0.02 77 1003.1
20260509213340 60 197 4.0 18.0 0.01 0.01 0.01 78 1002.9
20260509213139 60 201 6.0 16.0 0.01 0.01 0.01 81 1002.6
20260509213023 60 217 7.0 16.0 0.00 0.00 0.00 81 1002.6
20260509212823 61 210 7.0 16.0 0.00 0.00 0.00 80 1002.8
20260509212640 61 209 7.0 15.0 0.00 0.00 0.00 79 1002.3
20260509212440 61 211 6.0 15.0 0.00 0.00 0.00 78 1002.4
20260509212240 61 196 6.0 15.0 0.00 0.00 0.00 78 1002.4
20260509212039 61 213 5.0 15.0 0.00 0.00 0.00 78 1002.4
20260509211839 61 212 6.0 15.0 0.00 0.00 0.00 77 1002.3
20260509211639 61 214 7.0 15.0 0.00 0.00 0.00 77 1002.4
20260509211508 61 219 8.0 15.0 0.00 0.00 0.00 77 1002.3
20260509211307 61 215 7.0 15.0 0.00 0.00 0.00 77 1002.3
20260509211107 61 218 7.0 14.0 0.00 0.00 0.00 77 1002.3
20260509210907 61 210 7.0 16.0 0.00 0.00 0.00 76 1002.3
20260509210707 61 205 7.0 17.0 0.00 0.00 0.00 76 1002.2
20260509210506 61 220 6.0 17.0 0.00 0.00 0.00 76 1002.4
20260509210306 62 218 7.0 17.0 0.00 0.00 0.00 76 1002.2
20260509210106 62 221 7.0 18.0 0.00 0.00 0.00 76 1002.2
20260509205905 62 224 6.0 27.0 0.00 0.00 0.00 76 1002.2
20260509205705 62 219 6.0 27.0 0.00 0.00 0.00 76 1002.2
20260509205505 62 214 9.0 27.0 0.00 0.00 0.00 75 1002.1
20260509205307 62 199 9.0 27.0 0.00 0.00 0.00 75 1002.0
20260509205104 62 212 8.0 27.0 0.00 0.00 0.00 75 1002.0
20260509204904 62 219 8.0 20.0 0.00 0.00 0.00 75 1001.9
20260509204704 62 215 9.0 20.0 0.00 0.00 0.00 74 1001.8
20260509204503 62 220 9.0 20.0 0.00 0.00 0.00 74 1001.8
20260509204303 62 216 7.0 19.0 0.00 0.00 0.00 73 1001.9
20260509204103 62 212 7.0 16.0 0.00 0.00 0.00 73 1001.9
20260509203902 62 210 7.0 20.0 0.00 0.00 0.00 73 1001.9
20260509203702 62 218 8.0 20.0 0.00 0.00 0.00 73 1001.9
20260509203502 62 209 8.0 20.0 0.00 0.00 0.00 73 1001.9
20260509203301 62 214 9.0 21.0 0.00 0.00 0.00 73 1001.9
20260509203101 63 227 8.0 22.0 0.00 0.00 0.00 73 1001.9
20260509202901 63 218 10.0 22.0 0.00 0.00 0.00 73 1002.0
20260509202701 63 206 11.0 22.0 0.00 0.00 0.00 73 1002.1
20260509202500 63 213 11.0 22.0 0.00 0.00 0.00 73 1002.2
20260509202300 63 214 8.0 22.0 0.00 0.00 0.00 73 1002.2
20260509202100 63 202 9.0 22.0 0.00 0.00 0.00 73 1002.3
20260509201859 63 210 10.0 22.0 0.00 0.00 0.00 73 1002.3
20260509201659 63 214 10.0 20.0 0.00 0.00 0.00 73 1002.3
20260509201459 63 215 8.0 18.0 0.00 0.00 0.00 73 1002.2
20260509201258 63 225 9.0 18.0 0.00 0.00 0.00 74 1002.2